Change the Weather History Date:

Monday, December 9, 2013

  Actual Average Record
Temperature  
Mean Temperature 55 °F -  
Max Temperature 64 °F 60 °F 73 °F (2010)
Min Temperature 46 °F 45 °F 37 °F (1998)
Degree Days  
Heating Degree Days 10    
Growing Degree Days 5 (Base 50)    
Moisture  
Dew Point 48 °F    
Average Humidity 77    
Maximum Humidity 93    
Minimum Humidity 53    
Precipitation  
Precipitation 0.00 in 0.12 in - ()
Sea Level Pressure  
Sea Level Pressure 30.36 in    
Wind  
Wind Speed 9 mph ()    
Max Wind Speed 16 mph    
Max Gust Speed 21 mph    
Visibility 6.6 miles    
Events      
Averages and records for this station are not official NWS values.
T = Trace of Precipitation, MM = Missing Value Source: Averaged Metar Reports

Daily Weather History Graph

Daily Weather History Graph

Search for Another Location

Airport or City:

Trip Planner

Search our weather history database for the weather conditions in past years. The results will help you decide how hot, cold, wet, or windy it might be!

Date:

Astronomy

Dec. 09, 2013 Rise Set
Actual Time 8:18 AM CET 6:01 PM CET
Civil Twilight 7:49 AM CET 6:30 PM CET
Nautical Twilight 7:17 AM CET 7:02 PM CET
Astronomical Twilight 6:46 AM CET 7:34 PM CET
Moon 1:13 PM CET (12/9) 12:27 AM CET (12/9)
Length of Visible Light 10h 40m
Length of Day
9h 43m
Waxing Crescent, 48% of the Moon is Illuminated
Dec 9
Waxing Crescent
Dec 9
First Quarter
Dec 17
Full
Dec 25
Last Quarter
Jan 1
New

Hourly Weather History & Observations

Time (CET) Temp. Windchill Dew Point Humidity Pressure Visibility Wind Dir Wind Speed Gust Speed Precip Events Conditions
12:00 AM 49 °F - 44 °F 78% 30.37 in - WNW 5.8 mph - -  
12:00 AM 46.4 °F 43.5 °F 42.8 °F 87% 30.36 in 6.2 mi WNW 5.8 mph - N/A   Scattered Clouds
12:30 AM 46.4 °F 42.9 °F 42.8 °F 87% 30.36 in 6.2 mi WNW 6.9 mph - N/A   Scattered Clouds
1:00 AM 48 °F - 43 °F 78% 30.38 in 9 mi WNW 9.2 mph - -   Mostly Cloudy
1:00 AM 46.4 °F 42.4 °F 42.8 °F 87% 30.36 in 6.2 mi WNW 8.1 mph - N/A   Scattered Clouds
1:30 AM 46.4 °F 45.2 °F 42.8 °F 87% 30.36 in 6.2 mi WNW 3.5 mph - N/A   Mostly Cloudy
2:00 AM 48 °F - 43 °F 78% 30.37 in - WNW 9.2 mph - -  
2:00 AM 46.4 °F 41.9 °F 42.8 °F 87% 30.36 in 6.2 mi WNW 9.2 mph - N/A   Scattered Clouds
2:30 AM 46.4 °F 42.4 °F 42.8 °F 87% 30.36 in 6.2 mi WNW 8.1 mph - N/A   Scattered Clouds
3:00 AM 49 °F - 44 °F 76% 30.37 in - WNW 8.1 mph - -  
3:00 AM 46.4 °F 41.9 °F 42.8 °F 87% 30.36 in 6.2 mi WNW 9.2 mph - N/A   Mostly Cloudy
3:30 AM 46.4 °F 44.3 °F 42.8 °F 87% 30.36 in 6.2 mi WNW 4.6 mph - N/A   Mostly Cloudy
4:00 AM 46.4 °F 43.5 °F 42.8 °F 87% 30.36 in 6.2 mi NW 5.8 mph - N/A   Mostly Cloudy
4:30 AM 48.2 °F - 44.6 °F 87% 30.36 in 6.2 mi WNW 4.6 mph - N/A   Mostly Cloudy
5:00 AM 48 °F - 44 °F 80% 30.36 in - WNW 9.2 mph - -  
5:00 AM 48.2 °F - 44.6 °F 87% 30.33 in 6.2 mi WNW 8.1 mph - N/A   Mostly Cloudy
5:30 AM 48.2 °F - 44.6 °F 87% 30.33 in 6.2 mi West 8.1 mph - N/A   Mostly Cloudy
6:00 AM 48 °F - 44 °F 81% 30.35 in - WNW 9.2 mph - -  
6:00 AM 48.2 °F - 44.6 °F 87% 30.33 in 6.2 mi WNW 8.1 mph - N/A   Mostly Cloudy
6:30 AM 46.4 °F 42.9 °F 42.8 °F 87% 30.33 in 6.2 mi WNW 6.9 mph - N/A   Mostly Cloudy
7:00 AM 48 °F - 44 °F 81% 30.36 in 9 mi WNW 8.1 mph - -   Mostly Cloudy
7:00 AM 46.4 °F 42.4 °F 44.6 °F 93% 30.33 in 6.2 mi WNW 8.1 mph - N/A   Mostly Cloudy
7:30 AM 46.4 °F 44.3 °F 44.6 °F 93% 30.33 in 6.2 mi WNW 4.6 mph - N/A   Mostly Cloudy
8:00 AM 48 °F - 44 °F 81% 30.36 in - WNW 8.1 mph - -  
8:00 AM 46.4 °F 42.9 °F 42.8 °F 87% 30.33 in 6.2 mi WNW 6.9 mph - N/A   Mostly Cloudy
8:30 AM 46.4 °F 42.4 °F 42.8 °F 87% 30.36 in 6.2 mi WNW 8.1 mph - N/A   Scattered Clouds
9:00 AM 48 °F - 44 °F 83% 30.37 in - WNW 8.1 mph - -  
9:00 AM 48.2 °F - 44.6 °F 87% 30.36 in 6.2 mi West 6.9 mph - N/A   Scattered Clouds
9:30 AM 48.2 °F - 44.6 °F 87% 30.36 in 6.2 mi WNW 8.1 mph - N/A   Scattered Clouds
10:00 AM 50.0 °F - 44.6 °F 82% 30.39 in 6.2 mi WNW 4.6 mph - N/A   Scattered Clouds
10:30 AM 50.0 °F - 46.4 °F 87% 30.39 in 6.2 mi WNW 4.6 mph - N/A   Mostly Cloudy
11:00 AM 54 °F - 46 °F 65% 30.41 in - NW 2.3 mph - -  
11:00 AM 53.6 °F - 46.4 °F 77% 30.39 in 6.2 mi Variable 2.3 mph - N/A   Mostly Cloudy
11:30 AM 60.8 °F - 51.8 °F 72% 30.39 in 6.2 mi East 6.9 mph 20.7 mph N/A   Mostly Cloudy
12:00 PM 64 °F - 51 °F 54% 30.40 in - East 15.0 mph - -  
12:00 PM 62.6 °F - 51.8 °F 68% 30.39 in 6.2 mi East 15.0 mph - N/A   Scattered Clouds
12:30 PM 60.8 °F - 50.0 °F 68% 30.39 in 6.2 mi East 15.0 mph - N/A   Scattered Clouds
1:00 PM 62 °F - 50 °F 55% 30.39 in 16 mi East 16.1 mph - -   Partly Cloudy
1:00 PM 60.8 °F - 50.0 °F 68% 30.36 in 6.2 mi East 15.0 mph - N/A   Scattered Clouds
1:30 PM 60.8 °F - 50.0 °F 68% 30.36 in 6.2 mi East 15.0 mph - N/A   Scattered Clouds
2:00 PM 65 °F - 52 °F 53% 30.37 in - ESE 15.0 mph - -  
2:00 PM 62.6 °F - 51.8 °F 68% 30.36 in 6.2 mi ESE 15.0 mph - N/A   Scattered Clouds
2:30 PM 62.6 °F - 51.8 °F 68% 30.36 in 6.2 mi East 15.0 mph - N/A   Partly Cloudy
3:00 PM 64 °F - 51 °F 54% 30.35 in - East 15.0 mph - -  
3:00 PM 60.8 °F - 50.0 °F 68% 30.33 in 6.2 mi East 15.0 mph - N/A   Partly Cloudy
3:30 PM 62.6 °F - 51.8 °F 68% 30.33 in 6.2 mi ESE 13.8 mph - N/A   Partly Cloudy
4:00 PM 60.8 °F - 50.0 °F 68% 30.33 in 6.2 mi East 15.0 mph - N/A   Partly Cloudy
4:30 PM 60.8 °F - 50.0 °F 68% 30.33 in 6.2 mi ESE 12.7 mph - N/A   Scattered Clouds
5:00 PM 62 °F - 51 °F 59% 30.36 in - ESE 13.8 mph - -  
5:00 PM 59.0 °F - 50.0 °F 72% 30.33 in 6.2 mi ESE 12.7 mph - N/A   Scattered Clouds
5:30 PM 59.0 °F - 51.8 °F 77% 30.36 in 6.2 mi East 11.5 mph - N/A   Scattered Clouds
6:00 PM 60 °F - 52 °F 66% 30.36 in - ESE 12.7 mph - -  
6:00 PM 59.0 °F - 51.8 °F 77% 30.36 in 6.2 mi ESE 11.5 mph - N/A   Scattered Clouds
6:30 PM 59.0 °F - 51.8 °F 77% 30.36 in 6.2 mi ESE 11.5 mph - N/A   Scattered Clouds
7:00 PM 60 °F - 52 °F 69% 30.38 in 12 mi ESE 13.8 mph - -   Mostly Cloudy
7:00 PM 59.0 °F - 51.8 °F 77% 30.36 in 6.2 mi ESE 12.7 mph - N/A   Scattered Clouds
7:30 PM 59.0 °F - 51.8 °F 77% 30.36 in 6.2 mi ESE 15.0 mph - N/A   Scattered Clouds
8:00 PM 60 °F - 52 °F 67% 30.38 in - ESE 13.8 mph - -  
8:00 PM 59.0 °F - 51.8 °F 77% 30.36 in 6.2 mi ESE 13.8 mph - N/A   Scattered Clouds
8:30 PM 59.0 °F - 53.6 °F 82% 30.39 in 6.2 mi ESE 12.7 mph - N/A   Scattered Clouds
9:00 PM 60 °F - 53 °F 72% 30.40 in - ESE 15.0 mph - -  
9:00 PM 59.0 °F - 51.8 °F 77% 30.39 in 6.2 mi ESE 13.8 mph - N/A   Scattered Clouds
9:30 PM 59.0 °F - 51.8 °F 77% 30.39 in 6.2 mi ESE 13.8 mph - N/A   Scattered Clouds
10:00 PM 59.0 °F - 51.8 °F 77% 30.39 in 6.2 mi ESE 13.8 mph - N/A   Scattered Clouds
10:30 PM 59.0 °F - 51.8 °F 77% 30.39 in 6.2 mi ESE 16.1 mph - N/A   Scattered Clouds
11:00 PM 60 °F - 52 °F 67% 30.41 in - ESE 13.8 mph - -  
11:00 PM 59.0 °F - 51.8 °F 77% 30.39 in 6.2 mi ESE 12.7 mph - N/A   Scattered Clouds
11:30 PM 59.0 °F - 51.8 °F 77% 30.39 in 6.2 mi ESE 16.1 mph - N/A   Scattered Clouds